Satellite-Ground Cal/Val Region Overpasses Predictions

Prediction of Satellite NPP Overpassing Cal/Val Region: PacNW

Region Location: (Latitude: 10.00, Longitude: 139.50) to (Latitude: 22.70, Longitude: 165.60).

Table of predicted overpasses for the next 14.0 days since TLE Epoch: 9/22/2017
Interval Starting Time Starting Location Ending Time Ending Location
1 09/23/2017 02:52:31 ( 10.04, 156.70) 09/23/2017 02:56:06 ( 22.66, 153.69)
2 09/23/2017 15:24:25 ( 22.65, 153.93) 09/23/2017 15:28:00 ( 10.02, 150.93)
3 09/24/2017 02:33:30 ( 10.03, 161.46) 09/24/2017 02:37:05 ( 22.65, 158.45)
4 09/24/2017 15:05:23 ( 22.66, 158.69) 09/24/2017 15:08:58 ( 10.04, 155.69)
5 09/25/2017 02:15:14 ( 12.72, 165.59) 09/25/2017 02:18:04 ( 22.70, 163.20)
6 09/25/2017 03:55:58 ( 10.02, 140.84) 09/25/2017 03:57:36 ( 15.78, 139.50)
7 09/25/2017 14:46:22 ( 22.67, 163.45) 09/25/2017 14:49:57 ( 10.05, 160.45)
8 09/26/2017 03:36:57 ( 10.01, 145.60) 09/26/2017 03:40:33 ( 22.69, 142.58)
9 09/26/2017 14:30:26 ( 11.76, 165.60) 09/26/2017 14:30:55 ( 10.06, 165.20)
10 09/26/2017 16:08:50 ( 22.67, 142.83) 09/26/2017 16:12:25 ( 10.05, 139.83)
11 09/27/2017 03:17:56 ( 10.06, 150.34) 09/27/2017 03:21:31 ( 22.68, 147.34)
12 09/27/2017 15:49:49 ( 22.68, 147.59) 09/27/2017 15:53:25 ( 10.01, 144.57)
13 09/28/2017 02:58:55 ( 10.05, 155.10) 09/28/2017 03:02:30 ( 22.67, 152.10)
14 09/28/2017 15:30:48 ( 22.69, 152.35) 09/28/2017 15:34:24 ( 10.01, 149.33)
15 09/29/2017 02:39:53 ( 10.04, 159.86) 09/29/2017 02:43:28 ( 22.66, 156.86)
16 09/29/2017 15:11:47 ( 22.65, 157.10) 09/29/2017 15:15:22 ( 10.02, 154.09)
17 09/30/2017 02:20:52 ( 10.03, 164.62) 09/30/2017 02:24:27 ( 22.65, 161.62)
18 09/30/2017 14:52:46 ( 22.65, 161.86) 09/30/2017 14:56:21 ( 10.03, 158.85)
19 10/01/2017 03:43:20 ( 10.02, 144.00) 10/01/2017 03:46:55 ( 22.64, 141.00)
20 10/01/2017 14:34:55 ( 18.50, 165.59) 10/01/2017 14:37:19 ( 10.04, 163.61)
21 10/01/2017 16:15:14 ( 22.66, 141.24) 10/01/2017 16:17:16 ( 15.50, 139.50)
22 10/02/2017 03:24:19 ( 10.01, 148.76) 10/02/2017 03:27:55 ( 22.69, 145.74)
23 10/02/2017 15:56:13 ( 22.67, 146.00) 10/02/2017 15:59:48 ( 10.05, 142.99)
24 10/03/2017 03:05:17 ( 10.01, 153.52) 10/03/2017 03:08:53 ( 22.68, 150.50)
25 10/03/2017 15:37:11 ( 22.68, 150.76) 10/03/2017 15:40:46 ( 10.06, 147.75)
26 10/04/2017 02:46:17 ( 10.06, 158.27) 10/04/2017 02:49:52 ( 22.68, 155.26)
27 10/04/2017 15:18:10 ( 22.69, 155.52) 10/04/2017 15:21:46 ( 10.01, 152.50)
28 10/05/2017 02:27:16 ( 10.05, 163.02) 10/05/2017 02:30:51 ( 22.67, 160.02)
29 10/05/2017 14:59:08 ( 22.69, 160.27) 10/05/2017 15:02:44 ( 10.01, 157.26)
30 10/06/2017 02:10:53 ( 19.38, 165.59) 10/06/2017 02:11:49 ( 22.66, 164.78)
31 10/06/2017 03:49:44 ( 10.04, 142.41) 10/06/2017 03:53:12 ( 22.25, 139.51)
32 10/06/2017 14:40:08 ( 22.64, 165.02) 10/06/2017 14:43:43 ( 10.02, 162.01)


NCC Satellite Cal/Val Overpasses Prediction Service
